Flight Information

DEPARTURE
GRAND CANYON, AZ
Elevation:
6608
Runways:
3/21 - 8999x150 - ASPH-G
ATIS:
124.3
Ground:
121.9
Tower:
CANYON TOWER 119.0
DESTINATION
,
Elevation:
TPA:
1000 (est.)


6465.9 NM77° True-14° Var62° HDG

Flight Plan:
(click to file on line)

1. Type
2. Aircraft Identification
3. Aircraft Type / Special Equipment
4. True Airspeed
kts
5. Departure Airport
(ICAO code)
6. Arriving Airport
(ICAO code)
7. Cruising Altitude
ft
8. Alternate Airport
(ICAO code)
9. Route of Flight
10. Remarks


00:00:00 Departure ATIS: Destination ATIS:

Clearance Limit:
Route:
Altitude: Expect in minutes
Frequency:
Transponder: (7500 Hijack / 7600 Lost Comms / 7700 Emergency)


KGCN 040454Z AUTO 05004KT 10SM BKN018 M01/M04 A3028 RMK AO2 SLP232 T10061039
Time: 2022-12-04T04:54:00Z
1670654096
Winds: 50 @ 4 kts
Visibility: 10.0 sm
Clouds (AGL): BKN 1800
Temperature: -0.6 C
Dew Point: -3.9 C
Pressure: 30.280512 in Hgbr


Notes:

Data extracted from FAA Digital Chart Supplement. Effective: 0901Z Thursday, 27 JAN 2022 to 0900z Thursday, 24 MAR 2022
Current ATIS data is provided courtisy of PilotEdge.